Regional Weather Roundup
Issued by NWS

Home | Current Version | Previous Version | Graphics & Text | Print | Product List | Glossary Off
Versions: 1 2 3 4 5 6 7 8 9 10 11 12 13 14 15 16 17 18 19 20 21 22 23 24 25 26 27 28 29 30 31 32 33 34 35 36 37 38 39 40 41 42 43 44 45 46 47 48 49 50

000
ASUS43 KBIS 260220
RWRND

NORTH DAKOTA REGIONAL WEATHER ROUNDUP
NATIONAL WEATHER SERVICE BISMARCK ND
800 PM CST SUN JAN 25 2015

NOTE: "FAIR" INDICATES FEW OR NO CLOUDS BELOW 12,000 FEET WITH NO
SIGNIFICANT WEATHER AND/OR OBSTRUCTIONS TO VISIBILITY.


NDZ001>003-009>011-017-260300-
NORTHWEST NORTH DAKOTA

CITY           SKY/WX    TMP DP  RH WIND       PRES   REMARKS
WILLISTON      MOCLDY    40  33  76 SW9       29.80R
MINOT          CLOUDY    37  31  78 SW18G28   29.73F
MINOT AFB      CLOUDY    37  36  98 SW12      29.71F
$$

NDZ018>021-031>035-040>046-260300-
SOUTHWEST NORTH DAKOTA

CITY           SKY/WX    TMP DP  RH WIND       PRES   REMARKS
BISMARCK       CLOUDY    36  32  85 S3        29.84F
DICKINSON      MOCLDY    43  34  70 W14       29.81F
GARRISON         N/A     35  32  88 S8        29.77F
HETTINGER ARPT MOCLDY    42  33  70 W12       29.87F
$$

NDZ004>008-012>016-024-026-027-054-260300-
NORTHEAST NORTH DAKOTA

CITY           SKY/WX    TMP DP  RH WIND       PRES   REMARKS
GRAND FORKS    CLOUDY    26  19  74 S15       29.85F WCI  14
GRND FRKS AFB  CLOUDY    26  20  79 SW12      29.84F WCI  16
DEVILS LAKE    MOCLDY    28  27  93 S14       29.76F WCI  17
$$

NDZ022-023-025-028>030-036>039-047>053-260300-
SOUTHEAST NORTH DAKOTA

CITY           SKY/WX    TMP DP  RH WIND       PRES   REMARKS
FARGO          CLOUDY    26  19  74 S12       29.92F WCI  16
JAMESTOWN      CLOUDY    31  29  92 S8        29.86F
$$



USA.gov is the U.S. government's official web portal to all federal, state and local government web resources and services.